QPF
0.00 0.00 0.01 0.02 0.07 0.09 0.04 0.01 0.00 0.01 0.00 0.00 0.00 0.00 0.02 0.06 0.09 0.13 0.13 0.09 0.08 0.08 0.10 0.12 0.11 0.10 0.11 0.11 0.17 0.27 0.24 0.18 0.15 0.11 0.09 0.09 0.08 0.07 0.06 0.05 0.04 0.03 0.02 0.02 0.02 0.02 0.01 0.01 0.01
0.00 0.00 0.02 0.04 0.09 0.07 0.03 0.00 0.00 0.00 0.00 0.00 0.01 0.02 0.04 0.05 0.06 0.09 0.13 0.10 0.07 0.11 0.17 0.16 0.14 0.14 0.13 0.12 0.14 0.17 0.20 0.18 0.14 0.12 0.11 0.11 0.09 0.08 0.06 0.04 0.04 0.03 0.02 0.02 0.03 0.02 0.02 0.01 0.01
0.00 0.01 0.03 0.08 0.05 0.04 0.01 0.00 0.00 0.00 0.00 0.00 0.01 0.02 0.03 0.06 0.08 0.11 0.16 0.12 0.09 0.11 0.19 0.21 0.16 0.13 0.12 0.10 0.08 0.09 0.12 0.16 0.17 0.17 0.14 0.12 0.10 0.09 0.08 0.06 0.05 0.03 0.03 0.02 0.02 0.03 0.02 0.01 0.01
0.01 0.03 0.05 0.07 0.02 0.00 0.00 0.00 0.00 0.00 0.00 0.00 0.01 0.04 0.04 0.06 0.08 0.12 0.16 0.11 0.09 0.10 0.11 0.12 0.08 0.07 0.08 0.08 0.06 0.09 0.14 0.17 0.19 0.17 0.11 0.10 0.09 0.07 0.07 0.06 0.04 0.04 0.03 0.03 0.03 0.03 0.03 0.01 0.01
0.03 0.08 0.10 0.03 0.01 0.00 0.00 0.00 0.00 0.01 0.01 0.00 0.01 0.05 0.08 0.07 0.08 0.12 0.15 0.12 0.09 0.09 0.09 0.08 0.07 0.07 0.07 0.08 0.07 0.09 0.12 0.14 0.15 0.11 0.06 0.06 0.06 0.05 0.04 0.03 0.01 0.01 0.02 0.04 0.04 0.03 0.03 0.01 0.01
0.05 0.07 0.07 0.03 0.01 0.00 0.00 0.00 0.00 0.00 0.00 0.00 0.01 0.04 0.08 0.09 0.09 0.13 0.15 0.13 0.09 0.08 0.08 0.08 0.07 0.07 0.06 0.07 0.08 0.09 0.09 0.08 0.08 0.06 0.04 0.04 0.04 0.03 0.02 0.02 0.01 0.01 0.02 0.02 0.03 0.02 0.02 0.01 0.01
0.04 0.05 0.04 0.01 0.01 0.00 0.00 0.00 0.00 0.00 0.00 0.00 0.01 0.03 0.08 0.10 0.08 0.09 0.10 0.08 0.07 0.08 0.10 0.11 0.07 0.05 0.06 0.08 0.10 0.10 0.09 0.06 0.06 0.05 0.04 0.04 0.02 0.02 0.02 0.02 0.01 0.01 0.01 0.02 0.02 0.02 0.01 0.01 0.02
0.01 0.05 0.04 0.00 0.01 0.01 0.00 0.00 0.00 0.00 0.00 0.00 0.01 0.03 0.07 0.08 0.06 0.05 0.06 0.07 0.08 0.09 0.11 0.09 0.07 0.07 0.08 0.07 0.07 0.08 0.08 0.06 0.05 0.05 0.04 0.04 0.03 0.02 0.02 0.03 0.02 0.02 0.01 0.01 0.02 0.02 0.01 0.01 0.01
0.02 0.04 0.02 0.00 0.01 0.00 0.00 0.00 0.00 0.00 0.00 0.00 0.00 0.02 0.03 0.03 0.03 0.03 0.04 0.07 0.09 0.12 0.11 0.08 0.07 0.09 0.09 0.07 0.05 0.06 0.06 0.05 0.05 0.07 0.06 0.08 0.10 0.07 0.07 0.04 0.02 0.01 0.01 0.01 0.02 0.02 0.02 0.02 0.02
0.02 0.04 0.02 0.00 0.00 0.00 0.00 0.00 0.00 0.00 0.00 0.00 0.00 0.01 0.02 0.02 0.01 0.02 0.03 0.05 0.08 0.13 0.11 0.09 0.08 0.09 0.09 0.10 0.08 0.08 0.08 0.06 0.06 0.08 0.09 0.12 0.12 0.11 0.08 0.04 0.01 0.01 0.01 0.01 0.02 0.02 0.02 0.02 0.03
0.03 0.03 0.01 0.00 0.00 0.00 0.00 0.00 0.00 0.00 0.00 0.00 0.00 0.01 0.01 0.02 0.01 0.01 0.02 0.02 0.05 0.09 0.11 0.10 0.10 0.08 0.08 0.10 0.10 0.09 0.10 0.10 0.10 0.09 0.07 0.08 0.08 0.07 0.06 0.06 0.05 0.06 0.06 0.07 0.05 0.05 0.06 0.05 0.05
0.03 0.02 0.00 0.00 0.00 0.00 0.00 0.00 0.00 0.00 0.00 0.00 0.00 0.00 0.00 0.01 0.01 0.01 0.01 0.01 0.02 0.03 0.06 0.08 0.13 0.09 0.09 0.07 0.08 0.07 0.07 0.09 0.10 0.10 0.07 0.08 0.08 0.08 0.07 0.07 0.08 0.10 0.11 0.11 0.10 0.11 0.09 0.05 0.03
0.03 0.02 0.02 0.01 0.00 0.00 0.00 0.00 0.00 0.00 0.00 0.00 0.00 0.00 0.00 0.00 0.01 0.01 0.01 0.01 0.01 0.01 0.02 0.03 0.06 0.06 0.07 0.06 0.08 0.05 0.04 0.07 0.10 0.09 0.09 0.08 0.08 0.10 0.09 0.09 0.08 0.07 0.06 0.09 0.10 0.09 0.07 0.05 0.04
0.01 0.01 0.02 0.02 0.00 0.00 0.00 0.01 0.00 0.00 0.00 0.00 0.00 0.00 0.00 0.00 0.00 0.01 0.01 0.01 0.01 0.01 0.01 0.02 0.03 0.04 0.06 0.06 0.06 0.05 0.04 0.05 0.09 0.12 0.11 0.11 0.12 0.11 0.10 0.10 0.10 0.08 0.06 0.07 0.08 0.07 0.07 0.06 0.04
0.00 0.00 0.00 0.00 0.00 0.00 0.00 0.01 0.01 0.00 0.00 0.00 0.00 0.00 0.00 0.00 0.00 0.01 0.01 0.01 0.01 0.02 0.02 0.02 0.03 0.03 0.04 0.05 0.06 0.05 0.04 0.03 0.07 0.13 0.15 0.18 0.16 0.12 0.09 0.09 0.09 0.08 0.06 0.05 0.06 0.05 0.04 0.05 0.05
0.00 0.00 0.01 0.00 0.00 0.00 0.01 0.02 0.01 0.01 0.00 0.00 0.00 0.00 0.00 0.00 0.00 0.01 0.01 0.01 0.02 0.02 0.03 0.03 0.03 0.03 0.03 0.04 0.04 0.03 0.03 0.04 0.05 0.07 0.08 0.08 0.12 0.12 0.10 0.10 0.08 0.07 0.06 0.05 0.06 0.05 0.05 0.06 0.05
0.00 0.00 0.01 0.00 0.00 0.00 0.00 0.01 0.01 0.01 0.01 0.00 0.00 0.00 0.00 0.00 0.00 0.00 0.00 0.00 0.01 0.01 0.02 0.03 0.05 0.05 0.03 0.03 0.03 0.03 0.02 0.01 0.03 0.04 0.04 0.04 0.04 0.05 0.07 0.09 0.08 0.07 0.07 0.07 0.07 0.07 0.07 0.07 0.07
0.00 0.00 0.00 0.00 0.00 0.00 0.00 0.00 0.01 0.01 0.01 0.03 0.03 0.01 0.00 0.00 0.00 0.00 0.00 0.00 0.00 0.00 0.01 0.01 0.02 0.04 0.04 0.04 0.04 0.04 0.03 0.02 0.01 0.02 0.03 0.02 0.02 0.03 0.05 0.06 0.06 0.06 0.08 0.08 0.08 0.09 0.09 0.09 0.09
0.00 0.00 0.00 0.00 0.00 0.00 0.00 0.01 0.01 0.01 0.01 0.02 0.04 0.02 0.02 0.01 0.01 0.00 0.00 0.00 0.00 0.00 0.00 0.01 0.02 0.03 0.04 0.04 0.04 0.05 0.05 0.04 0.02 0.01 0.02 0.01 0.02 0.02 0.04 0.06 0.07 0.06 0.08 0.07 0.07 0.09 0.09 0.10 0.09
0.00 0.00 0.00 0.00 0.00 0.00 0.00 0.00 0.00 0.00 0.00 0.02 0.02 0.02 0.04 0.06 0.02 0.01 0.00 0.00 0.00 0.00 0.00 0.01 0.01 0.02 0.02 0.03 0.04 0.04 0.05 0.04 0.03 0.03 0.03 0.02 0.03 0.02 0.02 0.04 0.04 0.05 0.09 0.09 0.07 0.07 0.08 0.08 0.07
0.00 0.00 0.01 0.00 0.01 0.01 0.00 0.00 0.00 0.00 0.00 0.01 0.02 0.03 0.02 0.03 0.03 0.03 0.01 0.00 0.00 0.00 0.00 0.01 0.01 0.01 0.01 0.02 0.02 0.03 0.05 0.05 0.04 0.04 0.05 0.03 0.02 0.01 0.02 0.03 0.03 0.04 0.05 0.06 0.07 0.07 0.09 0.09 0.08
0.00 0.00 0.01 0.01 0.02 0.02 0.01 0.01 0.01 0.01 0.01 0.01 0.01 0.01 0.01 0.01 0.01 0.01 0.01 0.00 0.01 0.01 0.00 0.00 0.01 0.01 0.01 0.02 0.02 0.03 0.03 0.03 0.03 0.03 0.03 0.03 0.02 0.03 0.03 0.02 0.04 0.04 0.05 0.06 0.05 0.08 0.08 0.08 0.08
0.00 0.00 0.00 0.01 0.02 0.04 0.02 0.01 0.02 0.01 0.01 0.01 0.01 0.02 0.01 0.01 0.01 0.00 0.01 0.01 0.01 0.01 0.00 0.00 0.01 0.02 0.02 0.02 0.02 0.03 0.03 0.02 0.02 0.03 0.04 0.04 0.03 0.03 0.02 0.03 0.04 0.05 0.05 0.05 0.05 0.08 0.08 0.07 0.08
0.00 0.00 0.00 0.01 0.03 0.06 0.03 0.02 0.03 0.03 0.01 0.01 0.01 0.01 0.00 0.01 0.00 0.00 0.00 0.01 0.01 0.01 0.01 0.00 0.01 0.02 0.02 0.02 0.02 0.02 0.03 0.03 0.04 0.04 0.04 0.03 0.02 0.02 0.02 0.03 0.05 0.05 0.06 0.07 0.06 0.06 0.05 0.06 0.06
0.00 0.00 0.01 0.02 0.02 0.03 0.02 0.02 0.02 0.02 0.01 0.01 0.01 0.01 0.00 0.00 0.00 0.00 0.00 0.01 0.01 0.01 0.01 0.01 0.01 0.01 0.01 0.02 0.01 0.02 0.02 0.03 0.02 0.02 0.02 0.02 0.02 0.02 0.03 0.04 0.06 0.06 0.06 0.06 0.08 0.06 0.06 0.06 0.05
0.00 0.00 0.01 0.01 0.01 0.02 0.02 0.02 0.02 0.02 0.02 0.01 0.01 0.01 0.00 0.00 0.00 0.00 0.00 0.00 0.00 0.00 0.00 0.01 0.01 0.01 0.01 0.01 0.02 0.02 0.02 0.02 0.01 0.02 0.02 0.02 0.02 0.02 0.02 0.03 0.04 0.03 0.04 0.05 0.06 0.06 0.05 0.06 0.05
0.00 0.00 0.00 0.00 0.00 0.01 0.01 0.02 0.03 0.02 0.02 0.01 0.01 0.01 0.00 0.00 0.00 0.00 0.00 0.00 0.00 0.00 0.00 0.01 0.01 0.01 0.01 0.01 0.02 0.02 0.02 0.03 0.04 0.04 0.03 0.03 0.02 0.02 0.03 0.02 0.03 0.03 0.03 0.05 0.06 0.05 0.05 0.06 0.05
0.00 0.00 0.00 0.00 0.01 0.01 0.01 0.02 0.03 0.02 0.01 0.00 0.01 0.01 0.01 0.00 0.00 0.01 0.00 0.00 0.00 0.00 0.00 0.01 0.01 0.02 0.02 0.02 0.03 0.03 0.03 0.05 0.05 0.04 0.04 0.04 0.03 0.03 0.03 0.04 0.04 0.04 0.04 0.04 0.04 0.05 0.04 0.04 0.05
0.00 0.00 0.00 0.00 0.00 0.01 0.01 0.01 0.01 0.01 0.00 0.00 0.00 0.00 0.00 0.00 0.00 0.00 0.00 0.00 0.00 0.00 0.00 0.00 0.00 0.01 0.02 0.02 0.02 0.03 0.03 0.04 0.05 0.04 0.04 0.05 0.04 0.03 0.03 0.04 0.04 0.04 0.05 0.04 0.05 0.04 0.04 0.05 0.06
0.00 0.00 0.00 0.00 0.00 0.00 0.01 0.01 0.01 0.00 0.00 0.00 0.00 0.00 0.00 0.00 0.01 0.01 0.01 0.00 0.00 0.00 0.00 0.00 0.00 0.00 0.01 0.02 0.02 0.02 0.03 0.03 0.04 0.04 0.04 0.05 0.04 0.03 0.02 0.03 0.04 0.04 0.05 0.05 0.05 0.05 0.05 0.06 0.06
MSLP
1004.71 1005.25 1005.76 1006.14 1006.31 1006.24 1005.96 1005.53 1005.05 1004.62 1004.35 1004.27 1004.40 1004.68 1005.05 1005.43 1005.75 1005.98 1006.13 1006.25 1006.39 1006.63 1007.00 1007.51 1008.13 1008.79 1009.41 1009.94 1010.34 1010.60 1010.77 1010.89 1011.05 1011.29 1011.63 1012.08 1012.58 1013.10 1013.58 1013.97 1014.26 1014.46 1014.59 1014.70 1014.83 1014.97 1015.14 1015.32 1015.47
1004.69 1005.27 1005.76 1006.06 1006.13 1005.93 1005.53 1005.01 1004.49 1004.07 1003.85 1003.86 1004.07 1004.44 1004.86 1005.27 1005.59 1005.81 1005.95 1006.07 1006.25 1006.54 1006.98 1007.58 1008.27 1008.99 1009.66 1010.21 1010.60 1010.86 1011.02 1011.15 1011.32 1011.57 1011.94 1012.39 1012.89 1013.38 1013.82 1014.15 1014.38 1014.54 1014.65 1014.76 1014.89 1015.06 1015.26 1015.45 1015.61
1004.66 1005.26 1005.72 1005.96 1005.92 1005.62 1005.13 1004.55 1004.01 1003.63 1003.48 1003.58 1003.89 1004.33 1004.81 1005.23 1005.54 1005.74 1005.86 1005.97 1006.16 1006.49 1006.98 1007.64 1008.39 1009.16 1009.86 1010.43 1010.85 1011.12 1011.30 1011.45 1011.64 1011.91 1012.28 1012.72 1013.18 1013.62 1013.99 1014.25 1014.43 1014.55 1014.65 1014.77 1014.94 1015.15 1015.38 1015.60 1015.77
1004.57 1005.18 1005.61 1005.78 1005.67 1005.30 1004.77 1004.18 1003.67 1003.36 1003.30 1003.49 1003.88 1004.39 1004.90 1005.33 1005.62 1005.79 1005.89 1005.98 1006.17 1006.51 1007.03 1007.72 1008.51 1009.31 1010.04 1010.64 1011.08 1011.38 1011.60 1011.79 1012.01 1012.31 1012.68 1013.10 1013.52 1013.89 1014.18 1014.38 1014.50 1014.58 1014.68 1014.82 1015.02 1015.27 1015.54 1015.78 1015.95
1004.37 1004.97 1005.37 1005.50 1005.36 1004.98 1004.46 1003.92 1003.49 1003.27 1003.31 1003.60 1004.06 1004.61 1005.14 1005.56 1005.83 1005.96 1006.03 1006.10 1006.28 1006.62 1007.15 1007.84 1008.63 1009.44 1010.19 1010.81 1011.28 1011.63 1011.89 1012.14 1012.41 1012.74 1013.12 1013.52 1013.90 1014.21 1014.43 1014.57 1014.64 1014.70 1014.79 1014.95 1015.17 1015.45 1015.74 1015.99 1016.17
1004.05 1004.61 1004.98 1005.10 1004.97 1004.64 1004.19 1003.76 1003.45 1003.36 1003.51 1003.88 1004.40 1004.97 1005.49 1005.88 1006.12 1006.23 1006.26 1006.32 1006.48 1006.81 1007.33 1008.01 1008.78 1009.58 1010.31 1010.93 1011.43 1011.81 1012.13 1012.44 1012.77 1013.14 1013.54 1013.94 1014.30 1014.57 1014.74 1014.83 1014.87 1014.91 1014.99 1015.16 1015.39 1015.68 1015.98 1016.23 1016.38
1003.61 1004.14 1004.48 1004.61 1004.53 1004.29 1003.97 1003.69 1003.53 1003.57 1003.83 1004.27 1004.82 1005.39 1005.88 1006.25 1006.45 1006.53 1006.55 1006.59 1006.75 1007.07 1007.56 1008.21 1008.94 1009.69 1010.39 1010.99 1011.49 1011.90 1012.26 1012.62 1013.01 1013.44 1013.88 1014.29 1014.65 1014.91 1015.06 1015.13 1015.15 1015.17 1015.25 1015.41 1015.64 1015.93 1016.21 1016.44 1016.58
1003.14 1003.60 1003.92 1004.08 1004.07 1003.95 1003.79 1003.68 1003.68 1003.86 1004.21 1004.70 1005.26 1005.80 1006.25 1006.57 1006.74 1006.81 1006.82 1006.87 1007.03 1007.34 1007.81 1008.41 1009.09 1009.78 1010.42 1010.98 1011.45 1011.86 1012.25 1012.65 1013.09 1013.57 1014.05 1014.50 1014.88 1015.15 1015.31 1015.38 1015.40 1015.42 1015.50 1015.65 1015.87 1016.14 1016.40 1016.61 1016.73
1002.70 1003.09 1003.39 1003.57 1003.65 1003.66 1003.67 1003.72 1003.88 1004.17 1004.59 1005.09 1005.63 1006.13 1006.53 1006.80 1006.94 1007.00 1007.02 1007.09 1007.27 1007.58 1008.03 1008.58 1009.20 1009.81 1010.38 1010.87 1011.30 1011.70 1012.08 1012.50 1012.98 1013.49 1014.01 1014.51 1014.92 1015.23 1015.42 1015.52 1015.56 1015.59 1015.67 1015.82 1016.02 1016.27 1016.52 1016.72 1016.84
1002.40 1002.71 1002.97 1003.18 1003.34 1003.47 1003.62 1003.82 1004.10 1004.47 1004.92 1005.41 1005.90 1006.34 1006.67 1006.89 1007.01 1007.06 1007.11 1007.21 1007.41 1007.73 1008.16 1008.68 1009.24 1009.78 1010.26 1010.69 1011.06 1011.41 1011.78 1012.19 1012.68 1013.21 1013.77 1014.29 1014.76 1015.11 1015.35 1015.49 1015.57 1015.64 1015.73 1015.88 1016.08 1016.32 1016.56 1016.77 1016.90
1002.30 1002.54 1002.77 1002.99 1003.20 1003.43 1003.69 1003.99 1004.35 1004.76 1005.21 1005.66 1006.08 1006.42 1006.69 1006.85 1006.94 1007.00 1007.07 1007.20 1007.42 1007.76 1008.18 1008.67 1009.18 1009.65 1010.07 1010.43 1010.74 1011.05 1011.37 1011.76 1012.23 1012.76 1013.33 1013.89 1014.38 1014.79 1015.09 1015.29 1015.43 1015.53 1015.66 1015.82 1016.03 1016.28 1016.53 1016.75 1016.93
1002.46 1002.63 1002.83 1003.04 1003.29 1003.57 1003.90 1004.26 1004.66 1005.07 1005.48 1005.86 1006.19 1006.44 1006.62 1006.73 1006.79 1006.84 1006.92 1007.07 1007.32 1007.66 1008.08 1008.55 1009.02 1009.45 1009.82 1010.12 1010.39 1010.64 1010.92 1011.27 1011.70 1012.20 1012.76 1013.33 1013.85 1014.31 1014.67 1014.93 1015.13 1015.29 1015.46 1015.65 1015.89 1016.15 1016.43 1016.69 1016.90
1002.87 1003.00 1003.15 1003.35 1003.61 1003.92 1004.28 1004.66 1005.05 1005.44 1005.78 1006.08 1006.31 1006.47 1006.56 1006.60 1006.62 1006.65 1006.73 1006.88 1007.13 1007.46 1007.87 1008.32 1008.76 1009.16 1009.51 1009.78 1010.01 1010.22 1010.46 1010.76 1011.13 1011.60 1012.12 1012.67 1013.21 1013.70 1014.11 1014.45 1014.71 1014.94 1015.16 1015.39 1015.66 1015.95 1016.26 1016.56 1016.82
1003.50 1003.58 1003.71 1003.89 1004.15 1004.46 1004.82 1005.20 1005.56 1005.89 1006.17 1006.37 1006.51 1006.58 1006.60 1006.57 1006.54 1006.54 1006.58 1006.71 1006.92 1007.23 1007.61 1008.03 1008.45 1008.84 1009.17 1009.43 1009.65 1009.83 1010.03 1010.27 1010.59 1010.99 1011.46 1011.98 1012.51 1013.02 1013.48 1013.87 1014.21 1014.50 1014.78 1015.05 1015.36 1015.68 1016.02 1016.35 1016.66
1004.24 1004.30 1004.40 1004.58 1004.83 1005.14 1005.49 1005.85 1006.17 1006.45 1006.66 1006.79 1006.85 1006.85 1006.80 1006.72 1006.63 1006.58 1006.57 1006.64 1006.79 1007.04 1007.36 1007.73 1008.13 1008.50 1008.83 1009.10 1009.32 1009.49 1009.66 1009.85 1010.10 1010.42 1010.83 1011.30 1011.80 1012.31 1012.80 1013.25 1013.64 1014.00 1014.33 1014.65 1014.99 1015.34 1015.70 1016.05 1016.38
1004.97 1005.02 1005.12 1005.30 1005.55 1005.87 1006.22 1006.55 1006.85 1007.08 1007.24 1007.31 1007.32 1007.27 1007.18 1007.06 1006.93 1006.82 1006.74 1006.73 1006.80 1006.95 1007.19 1007.50 1007.85 1008.21 1008.54 1008.82 1009.04 1009.21 1009.34 1009.49 1009.67 1009.92 1010.24 1010.64 1011.11 1011.61 1012.11 1012.59 1013.04 1013.45 1013.83 1014.19 1014.55 1014.92 1015.28 1015.64 1015.97
1005.58 1005.63 1005.75 1005.95 1006.24 1006.57 1006.93 1007.26 1007.53 1007.73 1007.86 1007.91 1007.89 1007.83 1007.72 1007.58 1007.42 1007.26 1007.12 1007.02 1006.98 1007.02 1007.16 1007.38 1007.67 1008.00 1008.31 1008.60 1008.82 1008.98 1009.10 1009.20 1009.31 1009.47 1009.71 1010.03 1010.44 1010.91 1011.42 1011.93 1012.41 1012.87 1013.29 1013.68 1014.05 1014.42 1014.78 1015.13 1015.45
1005.97 1006.04 1006.20 1006.46 1006.79 1007.17 1007.55 1007.88 1008.15 1008.34 1008.45 1008.49 1008.47 1008.42 1008.33 1008.20 1008.04 1007.85 1007.66 1007.47 1007.33 1007.26 1007.28 1007.41 1007.62 1007.89 1008.18 1008.46 1008.68 1008.83 1008.92 1008.97 1009.01 1009.09 1009.24 1009.48 1009.82 1010.24 1010.73 1011.25 1011.76 1012.25 1012.70 1013.11 1013.49 1013.85 1014.19 1014.52 1014.82
1006.09 1006.21 1006.44 1006.77 1007.18 1007.62 1008.03 1008.38 1008.65 1008.82 1008.92 1008.96 1008.96 1008.94 1008.88 1008.80 1008.67 1008.49 1008.26 1008.03 1007.80 1007.63 1007.54 1007.56 1007.69 1007.90 1008.15 1008.40 1008.61 1008.75 1008.81 1008.81 1008.78 1008.77 1008.82 1008.97 1009.23 1009.60 1010.05 1010.56 1011.08 1011.58 1012.05 1012.47 1012.85 1013.20 1013.53 1013.83 1014.10
1005.96 1006.15 1006.48 1006.92 1007.42 1007.92 1008.38 1008.74 1008.99 1009.15 1009.22 1009.26 1009.28 1009.29 1009.29 1009.27 1009.19 1009.05 1008.85 1008.59 1008.32 1008.07 1007.90 1007.82 1007.86 1008.00 1008.21 1008.43 1008.61 1008.73 1008.75 1008.70 1008.60 1008.50 1008.45 1008.50 1008.67 1008.96 1009.37 1009.84 1010.36 1010.87 1011.34 1011.78 1012.15 1012.49 1012.80 1013.08 1013.34
1005.65 1005.94 1006.38 1006.94 1007.54 1008.12 1008.61 1008.97 1009.19 1009.30 1009.34 1009.35 1009.37 1009.41 1009.47 1009.52 1009.53 1009.46 1009.30 1009.07 1008.79 1008.50 1008.27 1008.12 1008.09 1008.17 1008.32 1008.50 1008.65 1008.74 1008.73 1008.62 1008.45 1008.27 1008.12 1008.06 1008.13 1008.34 1008.67 1009.10 1009.59 1010.09 1010.57 1011.00 1011.38 1011.71 1012.00 1012.27 1012.52
1005.28 1005.68 1006.25 1006.93 1007.63 1008.27 1008.78 1009.12 1009.29 1009.33 1009.30 1009.26 1009.26 1009.31 1009.42 1009.54 1009.64 1009.66 1009.58 1009.41 1009.15 1008.87 1008.61 1008.41 1008.33 1008.35 1008.45 1008.58 1008.70 1008.75 1008.70 1008.55 1008.31 1008.04 1007.80 1007.63 1007.59 1007.69 1007.94 1008.31 1008.76 1009.23 1009.70 1010.14 1010.51 1010.84 1011.13 1011.39 1011.64
1004.95 1005.47 1006.17 1006.97 1007.76 1008.44 1008.95 1009.24 1009.34 1009.30 1009.18 1009.06 1009.01 1009.05 1009.18 1009.37 1009.55 1009.67 1009.68 1009.59 1009.39 1009.13 1008.87 1008.65 1008.53 1008.50 1008.56 1008.65 1008.73 1008.74 1008.66 1008.46 1008.16 1007.81 1007.46 1007.19 1007.03 1007.03 1007.18 1007.47 1007.86 1008.31 1008.76 1009.19 1009.57 1009.90 1010.19 1010.45 1010.70
1004.75 1005.39 1006.21 1007.09 1007.95 1008.65 1009.14 1009.39 1009.41 1009.27 1009.05 1008.85 1008.73 1008.75 1008.88 1009.10 1009.35 1009.55 1009.66 1009.64 1009.51 1009.29 1009.05 1008.82 1008.67 1008.61 1008.62 1008.67 1008.71 1008.69 1008.57 1008.32 1007.96 1007.54 1007.10 1006.73 1006.46 1006.34 1006.39 1006.60 1006.93 1007.33 1007.76 1008.18 1008.56 1008.90 1009.19 1009.46 1009.71
1004.71 1005.44 1006.34 1007.29 1008.18 1008.90 1009.37 1009.56 1009.51 1009.28 1008.97 1008.70 1008.52 1008.49 1008.62 1008.85 1009.14 1009.41 1009.58 1009.64 1009.57 1009.39 1009.17 1008.95 1008.78 1008.68 1008.65 1008.66 1008.66 1008.60 1008.43 1008.14 1007.73 1007.25 1006.73 1006.26 1005.90 1005.68 1005.62 1005.74 1006.00 1006.35 1006.75 1007.16 1007.54 1007.88 1008.18 1008.44 1008.69
1004.82 1005.60 1006.53 1007.51 1008.40 1009.11 1009.56 1009.72 1009.63 1009.35 1008.99 1008.66 1008.44 1008.38 1008.49 1008.72 1009.03 1009.33 1009.55 1009.65 1009.62 1009.49 1009.28 1009.06 1008.87 1008.74 1008.67 1008.63 1008.59 1008.48 1008.28 1007.95 1007.50 1006.96 1006.39 1005.85 1005.39 1005.08 1004.93 1004.97 1005.16 1005.46 1005.82 1006.21 1006.58 1006.91 1007.21 1007.46 1007.70
1005.00 1005.78 1006.70 1007.65 1008.53 1009.22 1009.65 1009.81 1009.72 1009.44 1009.08 1008.75 1008.52 1008.44 1008.53 1008.76 1009.07 1009.37 1009.61 1009.74 1009.74 1009.62 1009.43 1009.20 1009.00 1008.83 1008.72 1008.63 1008.54 1008.40 1008.16 1007.80 1007.32 1006.74 1006.13 1005.53 1005.01 1004.63 1004.41 1004.37 1004.49 1004.73 1005.05 1005.41 1005.76 1006.08 1006.35 1006.59 1006.80
1005.18 1005.90 1006.75 1007.64 1008.46 1009.13 1009.57 1009.76 1009.71 1009.50 1009.21 1008.92 1008.73 1008.67 1008.76 1008.97 1009.26 1009.55 1009.79 1009.92 1009.93 1009.82 1009.63 1009.41 1009.18 1008.99 1008.84 1008.71 1008.57 1008.39 1008.12 1007.73 1007.24 1006.65 1006.02 1005.39 1004.84 1004.40 1004.13 1004.03 1004.08 1004.27 1004.54 1004.85 1005.17 1005.46 1005.70 1005.90 1006.07
1005.30 1005.91 1006.65 1007.43 1008.18 1008.81 1009.27 1009.52 1009.58 1009.48 1009.30 1009.12 1009.00 1008.99 1009.09 1009.30 1009.57 1009.84 1010.05 1010.17 1010.18 1010.08 1009.90 1009.68 1009.45 1009.23 1009.05 1008.88 1008.71 1008.49 1008.20 1007.81 1007.31 1006.73 1006.10 1005.48 1004.91 1004.46 1004.15 1004.00 1004.00 1004.13 1004.34 1004.59 1004.85 1005.09 1005.28 1005.43 1005.55
1005.36 1005.82 1006.40 1007.05 1007.71 1008.30 1008.78 1009.11 1009.29 1009.35 1009.33 1009.28 1009.27 1009.33 1009.46 1009.67 1009.92 1010.15 1010.34 1010.45 1010.46 1010.37 1010.20 1009.99 1009.77 1009.55 1009.35 1009.16 1008.96 1008.73 1008.42 1008.03 1007.54 1006.99 1006.39 1005.79 1005.25 1004.79 1004.46 1004.28 1004.23 1004.29 1004.44 1004.62 1004.81 1004.97 1005.09 1005.18 1005.23
Thickness
5835 5837 5836 5827 5807 5801 5802 5814 5821 5818 5820 5827 5829 5820 5805 5797 5788 5773 5795 5803 5799 5794 5789 5786 5784 5782 5780 5779 5777 5776 5775 5773 5772 5772 5771 5770 5769 5768 5767 5766 5765 5764 5763 5763 5761 5761 5760 5760 5760
5844 5843 5834 5820 5800 5793 5800 5817 5817 5819 5827 5833 5828 5820 5808 5799 5802 5797 5798 5801 5799 5794 5790 5787 5783 5781 5779 5777 5776 5774 5773 5771 5770 5770 5769 5768 5767 5766 5766 5765 5764 5763 5762 5762 5761 5760 5760 5759 5759
5845 5845 5826 5817 5813 5804 5805 5821 5823 5830 5836 5831 5821 5817 5806 5798 5801 5799 5801 5803 5799 5794 5789 5784 5782 5779 5777 5775 5774 5773 5771 5770 5769 5768 5767 5766 5766 5765 5764 5764 5763 5762 5762 5761 5761 5760 5759 5759 5759
5845 5838 5829 5824 5817 5825 5827 5830 5835 5831 5832 5832 5822 5807 5804 5809 5807 5804 5805 5803 5797 5792 5787 5782 5780 5778 5776 5774 5773 5771 5770 5768 5768 5767 5765 5765 5764 5764 5763 5763 5762 5762 5761 5760 5760 5759 5759 5759 5759
5848 5831 5819 5823 5825 5834 5842 5844 5842 5830 5826 5826 5817 5798 5794 5807 5811 5808 5805 5802 5796 5791 5786 5781 5779 5777 5775 5773 5771 5770 5769 5768 5766 5765 5765 5764 5763 5763 5763 5762 5761 5761 5760 5760 5759 5759 5759 5759 5758
5839 5834 5817 5816 5824 5838 5847 5851 5844 5833 5827 5825 5815 5799 5792 5806 5806 5805 5805 5801 5797 5792 5786 5780 5778 5776 5774 5772 5770 5769 5768 5767 5765 5765 5764 5764 5763 5762 5762 5762 5761 5760 5760 5760 5759 5759 5759 5759 5758
5840 5832 5831 5829 5828 5833 5845 5855 5845 5835 5828 5828 5825 5802 5795 5802 5806 5807 5804 5801 5797 5792 5787 5781 5778 5775 5773 5771 5770 5769 5768 5766 5765 5764 5764 5763 5763 5762 5762 5761 5761 5761 5760 5760 5759 5759 5759 5758 5758
5862 5841 5835 5835 5832 5833 5851 5854 5849 5841 5832 5841 5836 5808 5794 5802 5808 5807 5803 5800 5796 5792 5787 5782 5779 5776 5773 5771 5769 5769 5767 5766 5765 5764 5764 5764 5763 5763 5762 5762 5761 5761 5760 5760 5760 5759 5759 5759 5759
5875 5839 5830 5839 5839 5841 5855 5848 5849 5854 5842 5839 5838 5826 5814 5813 5810 5803 5797 5794 5792 5789 5788 5785 5782 5779 5776 5773 5770 5768 5767 5766 5765 5765 5764 5764 5764 5764 5763 5763 5762 5761 5761 5760 5760 5760 5760 5759 5760
5869 5840 5841 5859 5861 5857 5858 5853 5851 5845 5833 5826 5823 5822 5819 5813 5807 5799 5793 5789 5787 5785 5786 5786 5784 5781 5779 5776 5772 5769 5769 5767 5767 5767 5766 5766 5766 5766 5765 5763 5763 5762 5762 5761 5761 5761 5760 5761 5761
5870 5854 5861 5868 5873 5869 5861 5858 5861 5844 5828 5826 5818 5815 5815 5811 5806 5801 5796 5793 5790 5788 5787 5787 5785 5783 5780 5777 5774 5772 5772 5770 5769 5769 5769 5768 5768 5767 5766 5764 5763 5762 5762 5762 5762 5761 5762 5763 5764
5869 5868 5871 5872 5877 5871 5863 5861 5855 5849 5841 5843 5834 5826 5818 5811 5808 5805 5800 5796 5793 5790 5788 5788 5786 5783 5781 5779 5777 5775 5774 5772 5771 5770 5770 5770 5769 5768 5767 5766 5765 5764 5764 5764 5764 5764 5764 5765 5765
5868 5869 5877 5880 5878 5874 5869 5860 5853 5848 5852 5848 5837 5828 5820 5815 5812 5810 5807 5802 5797 5792 5790 5789 5787 5783 5781 5779 5778 5777 5776 5775 5773 5771 5770 5770 5770 5769 5768 5768 5766 5767 5766 5765 5765 5765 5765 5766 5766
5870 5873 5875 5878 5876 5874 5861 5855 5851 5846 5852 5843 5834 5826 5823 5819 5815 5811 5807 5802 5798 5794 5791 5790 5787 5784 5781 5779 5778 5779 5778 5776 5775 5773 5772 5771 5771 5770 5769 5768 5767 5768 5768 5767 5766 5766 5766 5766 5767
5877 5864 5864 5869 5873 5872 5862 5841 5845 5851 5850 5840 5834 5829 5826 5823 5819 5813 5810 5805 5801 5797 5794 5791 5788 5785 5782 5781 5780 5780 5780 5779 5777 5776 5774 5773 5772 5771 5770 5769 5768 5769 5769 5769 5768 5767 5767 5766 5766
5862 5850 5840 5861 5872 5871 5852 5823 5845 5854 5845 5837 5835 5831 5827 5824 5822 5819 5815 5811 5806 5801 5796 5794 5793 5788 5784 5783 5782 5782 5782 5781 5779 5778 5776 5774 5773 5772 5770 5770 5770 5769 5769 5769 5768 5767 5766 5765 5765
5844 5833 5834 5850 5871 5868 5851 5830 5846 5853 5843 5835 5835 5833 5829 5825 5824 5822 5819 5815 5810 5805 5800 5795 5794 5790 5787 5785 5784 5784 5783 5782 5781 5780 5778 5776 5775 5773 5772 5771 5771 5771 5771 5770 5769 5767 5766 5763 5763
5831 5840 5839 5841 5863 5865 5849 5841 5848 5853 5846 5837 5836 5834 5830 5825 5825 5825 5823 5819 5814 5809 5803 5798 5796 5793 5790 5787 5785 5785 5785 5784 5783 5782 5780 5778 5777 5776 5775 5774 5772 5772 5770 5769 5768 5766 5766 5764 5763
5848 5846 5842 5849 5869 5861 5849 5842 5844 5850 5846 5841 5836 5835 5831 5829 5831 5829 5826 5822 5816 5810 5805 5801 5797 5794 5792 5788 5785 5783 5783 5784 5785 5785 5783 5781 5780 5778 5777 5775 5773 5773 5770 5769 5768 5766 5764 5763 5764
5846 5841 5843 5853 5867 5858 5848 5845 5852 5852 5848 5848 5843 5839 5836 5831 5830 5828 5826 5823 5818 5812 5807 5804 5800 5797 5794 5792 5790 5789 5788 5788 5788 5788 5786 5784 5782 5780 5779 5776 5774 5773 5771 5769 5768 5766 5762 5762 5764
5841 5838 5838 5838 5854 5858 5845 5837 5844 5851 5855 5853 5851 5848 5843 5837 5831 5828 5826 5824 5821 5815 5811 5809 5804 5801 5798 5797 5794 5792 5790 5788 5788 5787 5786 5786 5784 5782 5780 5778 5777 5775 5773 5770 5768 5767 5763 5759 5762
5829 5849 5846 5839 5831 5825 5831 5812 5832 5846 5846 5848 5849 5849 5847 5844 5838 5833 5829 5826 5824 5821 5817 5813 5808 5805 5802 5800 5796 5792 5788 5785 5787 5788 5789 5788 5787 5784 5782 5780 5778 5776 5775 5772 5770 5769 5766 5762 5758
5840 5853 5844 5836 5826 5816 5824 5813 5821 5839 5835 5841 5847 5847 5848 5845 5842 5837 5834 5831 5829 5826 5821 5816 5811 5807 5804 5802 5799 5794 5792 5791 5791 5791 5789 5788 5788 5786 5784 5782 5780 5777 5775 5773 5771 5769 5767 5765 5761
5851 5843 5835 5831 5820 5797 5815 5810 5809 5827 5836 5843 5847 5849 5851 5848 5846 5843 5840 5834 5831 5829 5824 5819 5812 5808 5806 5803 5800 5797 5794 5792 5790 5789 5787 5786 5787 5787 5786 5784 5781 5778 5775 5773 5772 5770 5767 5765 5764
5841 5818 5794 5787 5788 5794 5825 5820 5820 5840 5850 5851 5850 5850 5852 5851 5848 5843 5838 5833 5831 5827 5825 5821 5814 5808 5806 5803 5801 5798 5796 5794 5791 5789 5788 5786 5786 5786 5785 5784 5781 5779 5776 5774 5772 5769 5767 5766 5763
5829 5822 5792 5775 5780 5797 5815 5813 5830 5849 5854 5858 5857 5854 5852 5850 5849 5845 5841 5835 5832 5829 5826 5823 5816 5810 5807 5804 5801 5800 5797 5795 5794 5792 5791 5789 5787 5787 5787 5784 5781 5778 5776 5774 5772 5769 5767 5766 5763
5821 5821 5831 5813 5805 5795 5803 5815 5829 5847 5847 5850 5849 5847 5845 5847 5848 5846 5843 5838 5834 5831 5827 5824 5818 5812 5808 5805 5801 5799 5798 5795 5793 5793 5791 5790 5789 5788 5787 5783 5779 5777 5775 5773 5770 5768 5766 5765 5763
5833 5830 5820 5805 5785 5777 5797 5804 5809 5823 5831 5838 5840 5841 5841 5844 5845 5845 5843 5841 5836 5832 5828 5825 5820 5813 5810 5806 5803 5800 5797 5795 5793 5792 5790 5789 5787 5786 5784 5781 5777 5775 5773 5770 5768 5766 5765 5763 5761
5820 5816 5812 5806 5802 5783 5775 5793 5830 5828 5833 5835 5837 5839 5840 5841 5841 5842 5841 5840 5837 5832 5827 5822 5818 5812 5808 5806 5803 5800 5797 5795 5793 5790 5789 5787 5785 5783 5780 5778 5775 5772 5770 5768 5765 5763 5762 5760 5758
5826 5819 5812 5790 5787 5793 5784 5793 5836 5836 5834 5834 5833 5834 5837 5837 5838 5838 5837 5833 5830 5826 5823 5819 5815 5811 5807 5804 5801 5798 5795 5793 5790 5788 5786 5784 5781 5779 5777 5775 5772 5770 5768 5766 5764 5760 5759 5756 5754